Weather History for York, PA

Change the Weather History Date:

Monday, March 19, 2012

  Actual Average Record
Temperature  
Mean Temperature 58 °F -  
Max Temperature 70 °F 0 °F 70 °F (2012)
Min Temperature 46 °F - 7 °F (2007)
Degree Days  
Heating Degree Days 8    
Growing Degree Days 8 (Base 50)    
Moisture  
Dew Point 52 °F    
Average Humidity 88    
Maximum Humidity 100    
Minimum Humidity 65    
Precipitation  
Precipitation 0.08 in - - ()
Sea Level Pressure  
Sea Level Pressure 30.19 in    
Wind  
Wind Speed 1 mph (South)    
Max Wind Speed 6 mph    
Max Gust Speed -    
Visibility 6 miles    
Events Rain    
Averages and records for this station are not official NWS values.
T = Trace of Precipitation, MM = Missing Value Source: NWS Daily Summary

Daily Weather History Graph

Daily Weather History Graph

Search for Another Location

Airport:

Trip Planner

Search our weather history database for the weather conditions in past years. The results will help you decide how hot, cold, wet, or windy it might be!

Date:

Astronomy

Mar. 19, 2012 Rise Set
Actual Time 7:11 AM EDT 7:19 PM EDT
Civil Twilight 6:44 AM EDT 7:46 PM EDT
Nautical Twilight 6:13 AM EDT 8:17 PM EDT
Astronomical Twilight 5:41 AM EDT 8:49 PM EDT
Moon 5:22 AM EDT (3/19) 4:45 PM EDT (3/19)
Length of Visible Light 13h 01m
Length of Day
12h 07m
Waning Crescent, 8% of the Moon is Illuminated
Mar 19
Waning Crescent
Mar 22
New
Mar 30
First Quarter
Apr 6
Full
Apr 13
Last Quarter

Hourly Weather History & Observations

Time (EDT) Temp. Dew Point Humidity Pressure Visibility Wind Dir Wind Speed Gust Speed Precip Events Conditions
12:53 AM 51.1 °F 48.9 °F 92% 30.21 in 7.0 mi Calm Calm - N/A   Clear
1:53 AM 48.0 °F 46.9 °F 96% 30.20 in 5.0 mi Calm Calm - N/A   Clear
2:53 AM 46.9 °F 46.0 °F 97% 30.19 in 3.0 mi Calm Calm - N/A   Partly Cloudy
3:53 AM 48.9 °F 46.9 °F 93% 30.18 in 6.0 mi Calm Calm - N/A   Overcast
4:53 AM 51.1 °F 50.0 °F 96% 30.18 in 5.0 mi Calm Calm - N/A   Mostly Cloudy
5:13 AM 50.0 °F 48.2 °F 94% 30.17 in 4.0 mi Calm Calm - N/A   Mostly Cloudy
5:38 AM 48.2 °F 48.2 °F 100% 30.17 in 3.0 mi Calm Calm - N/A   Scattered Clouds
5:53 AM 48.9 °F 48.0 °F 97% 30.18 in 3.0 mi Calm Calm - N/A   Scattered Clouds
6:07 AM 46.4 °F 44.6 °F 93% 30.18 in 2.5 mi Calm Calm - N/A   Mostly Cloudy
6:29 AM 48.2 °F 46.4 °F 93% 30.18 in 2.5 mi Calm Calm - N/A   Overcast
6:53 AM 48.0 °F 46.9 °F 96% 30.20 in 4.0 mi Calm Calm - N/A   Mostly Cloudy
7:09 AM 46.4 °F 46.4 °F 100% 30.19 in 2.5 mi Calm Calm - N/A   Overcast
7:23 AM 48.2 °F 46.4 °F 93% 30.19 in 2.0 mi Calm Calm - N/A   Overcast
7:36 AM 48.2 °F 48.2 °F 100% 30.19 in 2.5 mi Calm Calm - N/A   Overcast
7:53 AM 50.0 °F 48.9 °F 96% 30.21 in 2.0 mi Calm Calm - N/A   Overcast
8:01 AM 51.8 °F 50.0 °F 94% 30.20 in 2.5 mi Calm Calm - N/A   Overcast
8:09 AM 51.8 °F 50.0 °F 94% 30.20 in 3.0 mi Calm Calm - N/A   Mostly Cloudy
8:53 AM 55.0 °F 52.0 °F 89% 30.21 in 5.0 mi ESE 3.5 mph - N/A   Overcast
9:11 AM 55.4 °F 53.6 °F 94% 30.20 in 6.0 mi Calm Calm - N/A   Scattered Clouds
9:53 AM 57.9 °F 53.1 °F 84% 30.21 in 8.0 mi SE 3.5 mph - N/A   Scattered Clouds
10:53 AM 63.0 °F 55.0 °F 75% 30.20 in 10.0 mi Calm Calm - N/A   Clear
11:53 AM 66.9 °F 55.9 °F 68% 30.20 in 10.0 mi Calm Calm - N/A   Mostly Cloudy
12:53 PM 68.0 °F 57.0 °F 68% 30.19 in 10.0 mi West 5.8 mph - N/A   Mostly Cloudy
1:53 PM 68.0 °F 57.0 °F 68% 30.18 in 10.0 mi Calm Calm - N/A   Overcast
2:53 PM 68.0 °F 57.0 °F 68% 30.17 in 10.0 mi Calm Calm - N/A   Overcast
3:53 PM 69.1 °F 57.9 °F 68% 30.16 in 10.0 mi Calm Calm - N/A   Overcast
4:53 PM 69.1 °F 57.9 °F 68% 30.15 in 10.0 mi Variable 4.6 mph - N/A   Overcast
5:53 PM 68.0 °F 55.9 °F 65% 30.15 in 10.0 mi SSE 5.8 mph - 0.00 in Rain Light Rain
6:53 PM 63.0 °F 60.1 °F 90% 30.17 in 6.0 mi SSW 3.5 mph - 0.05 in Rain Light Rain
7:53 PM 61.0 °F 60.1 °F 97% 30.17 in 6.0 mi Calm Calm - 0.01 in   Overcast
8:53 PM 60.1 °F 60.1 °F 100% 30.18 in 4.0 mi Calm Calm - N/A   Overcast
9:53 PM 59.0 °F 57.9 °F 96% 30.20 in 4.0 mi Calm Calm - 0.01 in   Overcast
10:53 PM 63.0 °F 57.9 °F 84% 30.20 in 10.0 mi SSE 4.6 mph - N/A   Overcast
11:53 PM 62.1 °F 59.0 °F 90% 30.21 in 9.0 mi SSW 3.5 mph - 0.01 in Rain Light Rain